Regional Weather Roundup
Issued by NWS

Home | Current Version | Previous Version | Text Only | Print | Product List | Glossary On
Versions: 1 2 3 4 5 6 7 8 9 10 11 12 13 14 15 16 17 18 19 20 21 22 23 24 25 26 27 28 29 30 31 32 33 34 35 36 37 38 39 40 41 42 43 44 45 46 47 48 49 50
000
ASPQ40 PGUM 022112
RWRPQ
WEATHER ROUNDUP FOR THE MARIANAS AND MICRONESIA
NATIONAL WEATHER SERVICE TIYAN GU
700 AM CHST WED SEP 03 2014

GUZ001>004-022200-
MARIANA ISLANDS-

CITY           SKY/WX    TMP DP  RH WIND       PRES   REMARKS
GUAM AIRPORT   MOSUNNY   81  77  89 SE5       29.81R
ANDERSEN AFB   MOSUNNY   75  73  94 S3        29.81R
ROTA AIRPORT   MOSUNNY   77  75  94 SW2       29.80R
TINIAN AP      PTSUNNY   82  77  83 SW6       29.75R HX  91
SAIPAN AP      MOSUNNY   81  79  94 SW6       29.78R

$$

PMZ161-022200-
REPUBLIC OF PALAU-

CITY           SKY/WX    TMP DP  RH WIND       PRES   REMARKS
KOROR AP       LGT RAIN  79  77  94 SW9       29.80F
KOROR WSO      LGT RAIN  79  75  89 S8        29.80R

$$

PMZ171>174-022200-
FEDERATED STATES OF MICRONESIA-

CITY           SKY/WX    TMP DP  RH WIND       PRES   REMARKS
YAP AIRPORT    MOCLDY    81  75  83 SW14G21   29.78R
CHUUK AP       PTSUNNY   84  79  84 N7        29.79R HX  96
POHNPEI AP     NOT AVBL
POHNPEI WSO    LGT RAIN  77  75  94 E3        29.85R
KOSRAE AP      NOT AVBL

$$

PMZ181-022200-
REPUBLIC OF THE MARSHALL ISLANDS-

CITY           SKY/WX    TMP DP  RH WIND       PRES   REMARKS
KWAJALEIN AP   MOSUNNY   86  73  66 E13       29.83R HX  93
MAJURO AP      PTSUNNY   84  77  79 E13       29.82  HX  94
MAJURO WSO     PTSUNNY   86  77  74 E10       29.82R HX  97

$$



USA.gov is the U.S. government's official web portal to all federal, state and local government web resources and services.